This demonstration page uses our WeatherBlox Daily Observations layout. Learn more.

40.92945, -100.16068

Hourly Observations for June 10, 2018

Temp ( °F °C ) Dew Point ( °F °C ) Humidity (%) Winds ( mph kmh ) Pressure ( in mb ) Visibility ( mi km ) Precip ( " mm )
12:15 am 00:15 Clear 78 25.5 65 18.5 65 65 ESE 10 17 29.62 1003 10 16.0934 0 0
12:35 am 00:35 Clear 77 25.1 65 18.4 66 66 ESE 10 17 29.62 1003 10 16.0934 0 0
12:55 am 00:55 Clear 78 25.6 64 17.7 62 62 SE 10 17 29.59 1002 10 16.0934 0 0
1:15 am 01:15 Clear 77 25.2 64 17.5 62 62 SE 10 17 29.59 1002 10 16.0934 0 0
1:35 am 01:35 Clear 76 24.7 63 17.2 63 63 SSE 10 17 29.59 1002 10 16.0934 0 0
1:55 am 01:55 Clear 76 24.2 63 17.1 65 65 SSE 12 19 29.56 1001 10 16.0934 0 0
2:15 am 02:15 Clear 76 24.2 63 17 64 64 SSE 12 19 29.56 1001 10 16.0934 0 0
2:35 am 02:35 Clear 76 24.5 62 16.5 61 61 SSE 12 19 29.56 1001 10 16.0934 0 0
2:55 am 02:55 Clear 75 23.8 62 16.6 64 64 SSE 9 15 29.62 1003 10 16.0934 0 0
3:15 am 03:15 Clear 75 24 62 16.6 63 63 SE 10 17 29.62 1003 10 16.0934 0 0
3:35 am 03:35 Clear 74 23.5 62 16.6 65 65 SE 9 15 29.62 1003 10 16.0934 0 0
3:55 am 03:55 Clear 74 23.1 62 16.6 67 67 SSE 8 13 29.59 1002 10 16.0934 0 0
4:15 am 04:15 Clear 72 22.4 62 16.7 70 70 SE 8 13 29.59 1002 10 16.0934 0 0
4:35 am 04:35 Clear 70 21.2 62 16.6 75 75 SSE 7 11 29.59 1002 10 16.0934 0 0
4:55 am 04:55 Clear 70 21.1 62 16.6 76 76 SSE 7 11 29.59 1002 10 16.0934 0 0
5:15 am 05:15 Clear 69 20.6 62 16.5 77 77 SSE 7 11 29.59 1002 10 16.0934 0 0
5:35 am 05:35 Clear 68 20.1 61 16.2 78 78 SSE 6 9 29.62 1003 10 16.0934 0 0
5:55 am 05:55 Clear 68 19.9 61 16.1 79 79 SSE 3 6 29.62 1003 10 16.0934 0 0
6:15 am 06:15 Sunny 68 19.8 61 15.9 78 78 SSE 3 6 29.62 1003 10 16.0934 0 0
6:35 am 06:35 Sunny 67 19.5 60 15.8 79 79 Calm 29.62 1003 10 16.0934 0 0
6:55 am 06:55 Sunny 68 20 61 16.1 78 78 SSE 3 6 29.62 1003 10 16.0934 0 0
7:15 am 07:15 Sunny 70 21.1 62 16.6 76 76 E 7 11 29.62 1003 10 16.0934 0 0
7:35 am 07:35 Sunny 72 22 63 17 73 73 SSE 9 15 29.59 1002 10 16.0934 0 0
7:55 am 07:55 Sunny 73 22.9 63 17.2 70 70 SE 6 9 29.62 1003 10 16.0934 0 0
8:15 am 08:15 Sunny 75 23.7 63 17.4 68 68 SE 8 13 29.62 1003 10 16.0934 0 0
8:35 am 08:35 Sunny 74 23.2 64 17.7 71 71 SSE 7 11 29.59 1002 10 16.0934 0 0
8:55 am 08:55 Sunny 75 24 64 17.7 68 68 SSW 6 9 29.62 1003 10 16.0934 0 0
9:15 am 09:15 Sunny 76 24.3 64 17.9 68 68 SSE 7 11 29.56 1001 10 16.0934 0 0
9:35 am 09:35 Sunny 77 24.9 65 18.3 67 67 S 8 13 29.56 1001 10 16.0934 0 0
9:55 am 09:55 Sunny 79 26 65 18.4 63 63 SSE 10 17 29.56 1001 10 16.0934 0 0
10:15 am 10:15 Sunny 80 26.8 65 18.6 61 61 S 12 19 29.56 1001 10 16.0934 0 0
10:35 am 10:35 Sunny 81 27.3 66 18.9 60 60 S 10 17 29.56 1001 10 16.0934 0 0
10:55 am 10:55 Sunny 84 28.8 66 18.7 54 54 SSE 10 17 29.53 1000 10 16.0934 0 0
11:15 am 11:15 Sunny 84 28.9 66 18.8 54 54 SSE 13 20 29.53 1000 10 16.0934 0 0
11:35 am 11:35 Sunny 85 29.4 66 18.9 53 53 SSE 12 19 29.53 1000 10 16.0934 0 0
11:55 am 11:55 Sunny 87 30.6 66 18.7 49 49 SSE 12 19 29.53 1000 10 16.0934 0 0
12:15 pm 12:15 Sunny 88 31 66 18.7 48 48 SSE 14 22 29.53 1000 10 16.0934 0 0
12:35 pm 12:35 Sunny 89 31.6 65 18.6 46 46 SE 14 22 29.5 999 10 16.0934 0 0
12:55 pm 12:55 Sunny 90 32.4 65 18.3 43 43 SSE 15 24 29.5 999 10 16.0934 0 0
1:15 pm 13:15 Sunny 91 33 65 18.3 42 42 SE 18 30 29.5 999 10 16.0934 0 0
1:35 pm 13:35 Sunny 92 33.3 65 18.1 40 40 SSE 16 26 29.47 998 10 16.0934 0 0
1:55 pm 13:55 Sunny 92 33.5 64 18 40 40 SSE 18 30 29.47 998 10 16.0934 0 0
2:15 pm 14:15 Sunny 93 34 64 18 39 39 SSE 15 24 29.47 998 10 16.0934 0 0
2:35 pm 14:35 Sunny 93 33.9 63 17.4 37 37 SSE 17 28 29.44 997 10 16.0934 0 0
2:55 pm 14:55 Sunny 96 35.5 62 16.7 33 33 SSE 18 30 29.41 996 10 16.0934 0 0
3:15 pm 15:15 Sunny 95 35 62 16.9 34 34 SSE 24 39 29.41 996 10 16.0934 0 0
3:35 pm 15:35 Sunny 95 35.1 62 16.9 34 34 SSE 20 31 29.41 996 10 16.0934 0 0
3:55 pm 15:55 Sunny 96 35.5 62 16.4 32 32 S 20 31 29.38 995 10 16.0934 0 0
4:15 pm 16:15 Sunny 96 35.7 61 16.1 31 31 S 21 33 29.38 995 10 16.0934 0 0
4:35 pm 16:35 Sunny 96 35.6 58 14.4 28 28 S 23 37 29.38 995 10 16.0934 0 0
4:55 pm 16:55 Sunny 95 35.1 59 14.8 30 30 S 25 41 29.38 995 10 16.0934 0 0
5:15 pm 17:15 Sunny 94 34.4 58 14.4 30 30 S 24 39 29.38 995 10 16.0934 0 0
5:35 pm 17:35 Sunny 94 34.7 60 15.3 31 31 S 17 28 29.38 995 10 16.0934 0 0
5:55 pm 17:55 Sunny 93 34.1 60 15.8 33 33 S 17 28 29.38 995 10 16.0934 0 0
6:15 pm 18:15 Sunny 94 34.5 61 16.3 34 34 S 16 26 29.38 995 10 16.0934 0 0
6:35 pm 18:35 Sunny 94 34.2 62 16.6 35 35 SSE 14 22 29.38 995 10 16.0934 0 0
6:55 pm 18:55 Sunny 93 33.9 62 16.8 36 36 SSE 16 26 29.35 994 10 16.0934 0 0
7:15 pm 19:15 Sunny 93 34 63 17.2 37 37 SSE 12 19 29.35 994 10 16.0934 0 0
7:35 pm 19:35 Sunny 91 32.7 63 17.4 40 40 SE 9 15 29.38 995 10 16.0934 0 0
7:55 pm 19:55 Sunny 89 31.9 63 17.4 42 42 SE 8 13 29.38 995 10 16.0934 0 0
8:15 pm 20:15 Sunny 90 32 62 16.5 39 39 SE 10 17 29.38 995 10 16.0934 0 0
8:35 pm 20:35 Sunny 89 31.5 62 16.4 40 40 SE 9 15 29.38 995 10 16.0934 0 0
8:55 pm 20:55 Sunny 87 30.5 62 16.6 43 43 SE 9 15 29.38 995 10 16.0934 0 0
9:15 pm 21:15 Clear 86 30 62 16.5 44 44 SE 9 15 29.38 995 10 16.0934 0 0
9:35 pm 21:35 Clear 84 29.1 62 16.7 47 47 SE 10 17 29.41 996 10 16.0934 0 0
9:55 pm 21:55 Clear 83 28.6 62 16.6 48 48 ESE 9 15 29.44 997 10 16.0934 0 0
10:15 pm 22:15 Clear 83 28.3 62 16.4 48 48 SE 10 17 29.44 997 10 16.0934 0 0
10:35 pm 22:35 Clear 83 28.5 61 16.1 47 47 SE 13 20 29.44 997 10 16.0934 0 0
10:55 pm 22:55 Clear 84 28.7 61 16 46 46 SE 14 22 29.44 997 10 16.0934 0 0
11:15 pm 23:15 Clear 83 28.5 60 15.8 46 46 SSE 15 24 29.44 997 10 16.0934 0 0
11:35 pm 23:35 Clear 82 27.9 60 15.8 48 48 SSE 15 24 29.44 997 10 16.0934 0 0
11:55 pm 23:55 Clear 82 28 60 15.7 47 47 SSE 17 28 29.44 997 10 16.0934 0 0

Powered by AerisWeather